User: anonymous   Login
Location: Theydon Bois
(51.6750°N, 0.1050°E)
Time: 20:37:07
(UTC+00:00)
Language:

Thor Agena Rocket - Orbit

View from above orbital plane
View from above orbital plane
View from above satellite
View from above satellite

Ground track
Ground track

The orbit data is extracted from the following two-line orbital elements,

1 00733U 64002A   17352.16838768  .00000032  00000-0  29793-4 0  9999
2 00733  99.1183 187.0686 0033978   6.2518 353.9081 14.32301004808647
Epoch (UTC): 18 December 2017 04:02:28
Eccentricity: 0.0033978
inclination: 99.1183°
perigee height: 760 km
apogee height: 808 km
right ascension of ascending node: 187.0686°
argument of perigee: 6.2518°
revolutions per day: 14.32301004
mean anomaly at epoch: 353.9081°
orbit number at epoch: 80864

The dashed part of the orbit path shows where the satellite is in the earth's shadow,  

DLR